Regional Weather Roundup
Issued by NWS

Home | Current Version | Previous Version | Graphics & Text | Print | Product List | Glossary Off
Versions: 1 2 3 4 5 6 7 8 9 10 11 12 13 14 15 16 17 18 19 20 21 22 23 24 25 26 27 28 29 30 31 32 33 34 35 36 37 38 39 40 41 42 43 44 45 46 47 48 49 50

000
ASUS43 KMKX 181459
RWRWI

WISCONSIN REGIONAL WEATHER ROUNDUP
NATIONAL WEATHER SERVICE MILWAUKEE/SULLIVAN WI
900 AM CST THU JAN 18 2018

NOTE: "FAIR" INDICATES FEW OR NO CLOUDS BELOW 12,000 FEET WITH NO
SIGNIFICANT WEATHER AND/OR OBSTRUCTIONS TO VISIBILITY.

WIZ001-002-006>008-014>016-023>028-181600-
NORTHWEST WISCONSIN

CITY           SKY/WX    TMP DP  RH WIND       PRES   REMARKS
SUPERIOR ARPT  CLOUDY    30  21  70 SW10      29.74S WCI  21
ASHLAND        NOT AVBL
HAYWARD        CLOUDY    26  17  68 SW3       29.78R
SIREN          FAIR      28  19  70 W14       29.81R WCI  16
CUMBERLAND     FAIR      21  16  79 SW9       29.80F WCI  11
RICE LAKE      FAIR      24  18  79 CALM      29.83F
CHETEK         FAIR      23  18  80 CALM      29.84R
LADYSMITH      FAIR      21  17  85 S3        29.84R
EAU CLAIRE     NOT AVBL
MENOMONIE      FAIR      24  17  74 S9        29.87F WCI  14
NEW RICHMOND   FAIR      22  16  78 SW9       29.84F WCI  11
OSCEOLA        FAIR      22  17  79 CALM      29.88R
$$

WIZ003>005-009-010-017-018-181600-
NORTH CENTRAL WISCONSIN

CITY           SKY/WX    TMP DP  RH WIND       PRES   REMARKS
MANITOWISH WTR CLOUDY    19  16  91 S6        29.73F WCI  10
ARBOR VITAE    PTSUNNY   22  18  87 SW6       29.76S WCI  14
WOODRUFF       PTSUNNY   22  18  87 SW6       29.76S WCI  14
RHINELANDER    FAIR      21  17  84 SW10      29.78S WCI  10
EAGLE RIVER    FAIR      21  16  81 SW5       29.75S WCI  14
LAND O LAKES   PTSUNNY   21  17  84 SW6       29.76S WCI  14
PHILLIPS       FAIR      22  17  84 SW8       29.77S WCI  12
TOMAHAWK       FAIR      20  16  84 CALM      29.79F
MEDFORD        FAIR      20  15  83 SW8       29.81F WCI  10
MERRILL        FAIR      22  17  81 W8        29.83F WCI  12
$$

WIZ029-030-035-036-043>047-181600-
CENTRAL WISCONSIN

CITY           SKY/WX    TMP DP  RH WIND       PRES   REMARKS
WAUSAU         FAIR      19  15  84 MISG      29.83F
MOSINEE        NOT AVBL
MARSHFIELD     FAIR      19  14  81 SW14      29.84F WCI   6
STEVENS POINT  FAIR      18  13  80 SW8       29.90F WCI   8
WAUPACA        FAIR      24  15  70 W6        29.95R WCI  17
WAUTOMA        NOT AVBL
WISC RAPIDS    FAIR      20  12  71 SW9       29.92F WCI   9
CAMP DOUGLAS   MOSUNNY   25  16  68 NW6       29.97R WCI  18
$$

WIZ011>013-019>022-031-037>040-048>050-181600-
NORTHEAST WISCONSIN

CITY           SKY/WX    TMP DP  RH WIND       PRES   REMARKS
ANTIGO         FAIR      19  15  86 SW8       29.82F WCI   9
SHAWANO        FAIR      24  16  73 SW9       29.89S WCI  14
OCONTO         FAIR      21  15  76 SW6       29.89S WCI  14
STURGEON BAY   FAIR      22  16  78 SW16      29.89F WCI   8
GREEN BAY      FAIR      22  14  71 SW13G20   29.93R WCI  10
MANITOWOC      FAIR      24  16  71 W9        29.95R WCI  14
APPLETON       MOSUNNY   21  12  68 W12G18    29.93R WCI   9
CLINTONVILLE   FAIR      23  16  74 SW8       29.91S WCI  14
OSHKOSH        FAIR      21  14  74 SW7       29.95R WCI  12
$$

WIZ032>034-041-042-053>061-181600-
SOUTHWEST WISCONSIN

CITY           SKY/WX    TMP DP  RH WIND       PRES   REMARKS
LA CROSSE      FAIR      19  12  74 SE5       29.99R WCI  12
SPARTA         FAIR      22  15  75 W5        29.98R WCI  16
VIROQUA        FAIR      19  14  83 SW10      29.95S WCI   7
BOSCOBEL       FAIR      20  12  71 SW6       30.03F WCI  12
PRAIRIE DU CHI FAIR      20  11  68 SW5       30.05R WCI  14
PLATTEVILLE    FAIR      19  13  80 SW10      30.03S WCI   7
$$

WIZ056-057-062-063-064-067-068-181600-
SOUTH CENTRAL WISCONSIN

CITY           SKY/WX    TMP DP  RH WIND       PRES   REMARKS
REEDSBURG      FAIR      20  13  74 SW8       29.97S WCI  10
BARABOO/DELLS  FAIR      19  12  73 SW14      29.95S WCI   6
LONE ROCK      NOT AVBL
MINERAL POINT  FAIR      21  16  79 SW10      30.00R WCI  10
MADISON        PTSUNNY   20  12  71 SW7       30.01R WCI  11
MIDDLETON      FAIR      21  14  72 SW10G16   30.00R WCI  10
WATERTOWN      FAIR      19  13  77 SW10G16   30.00R WCI   7
MONROE         FAIR      18  12  79 SW20      30.00F WCI   1
JANESVILLE     MOSUNNY   19  12  73 SW15      30.03F WCI   5
$$

WIZ051-052-058>065-066-070>072-181600-
SOUTHEAST WISCONSIN

CITY           SKY/WX    TMP DP  RH WIND       PRES   REMARKS
MILWAUKEE      PTSUNNY   22  12  65 W15G23    30.01F WCI   9
WAUKESHA       SUNNY     19  10  68 SW13      30.01S WCI   7
MILWAUKEE/TIMM SUNNY     21  10  63 W16G22    30.01S WCI   7
RACINE         FAIR      20  11  68 SW15G26   30.02F WCI   6
BURLINGTON     FAIR      19  11  70 SW16G22   30.03F WCI   4
KENOSHA        FAIR      20  11  68 SW17G26   30.02F WCI   5
FOND DU LAC    FAIR      20  11  68 SW13G24   29.93F WCI   7
SHEBOYGAN      FAIR      22  15  75 SW10      29.94S WCI  11
WEST BEND      FAIR      21  12  68 SW14      29.96S WCI   8
JUNEAU         FAIR      18  12  78 SW10      29.99R WCI   6
$$

LSZ147-162-181600-
LAKE SUPERIOR

STATION/POSITION TIME  TEMP    WIND        PRES    WAVE
                       AIR SEA DIR/SP/G            HT/PER
                 (UTC) (F)     (DEG/KT/KT) (MB)    (FT/S)
DEVILS ISLAND    1400   31     240/ 20/ 24 1006.3R
SAXON HARBOR     1430   31     210/ 10/ 14 1006.4R
$$

LMZ867-665-643>646-181600-
LAKE MICHIGAN

STATION/POSITION TIME  TEMP    WIND        PRES    WAVE
                       AIR SEA DIR/SP/G            HT/PER
                 (UTC) (F)     (DEG/KT/KT) (MB)    (FT/S)
NORTHPORT PIER   1440   24     220/ 10/ 34 1010.8F
KEWAUNEE LAKESHO 1430   23     250/  8/ 12 1012.2R
SHEBOYGAN LAKESH 1400   22     240/ 14/ 16 1014.9F
PORT WASHINGTON  1440   22     260/ 14/ 19 1016.6R
MILWAUKEE LAKESH 1430   21     240/ 17/ 19   N/A
KENOSHA   LAKESH 1400   18     250/ 19/ 26 1017.6
$$

TC  - TEMPERATURE IN CELSIUS
VSB - VISIBILITY IN STATUTE MILES
WCI - WIND CHILL INDEX
HX  - HEAT INDEX




USA.gov is the U.S. government's official web portal to all federal, state and local government web resources and services.